Location: Altmatt
(47.1333°N, 8.7000°E)
Time: 02:13:26
(UTC+00:00)

In-Cosmos 22 Rocket - Pass Details

Date: 13 July 2020
Orbit: 791 x 887 km, 81.2° (Epoch: 04 August)

Event Time Altitude Azimuth Distance (km) Brightness Sun altitude
Exits shadow 21:05:37 - 197° (SSW) 2,782 6.5 -13.8°
Reaches altitude 10° 21:06:43 10° 198° (SSW) 2,351 6.2 -13.9°
Maximum altitude 21:12:00 71° 283° (WNW) 842 4.3 -14.4°
Drops below altitude 10° 21:17:23 10° 7° (N) 2,394 7.3 -14.9°
Sets 21:19:48 0° 10° (N) 3,340 8.1 -15.1°
